period_start,C,m1,H,J0,J1,J2,J3,J4,J5,JA,JB,JC,JD,JJ,JK,JN,#
2013-11-23 00:00:21,0.13,2.15,0.00,24.71,27.93,30.72,5.82,31.46,1003.76,2040.92,2720.97,2729.03,2966.07,348.85,316.98,10.82,0000 0000 0000 0000 000000
2013-11-23 00:01:22,0.09,2.15,0.00,24.76,27.93,30.72,5.84,31.04,1003.72,2040.91,2720.51,2728.99,2966.02,349.46,317.42,10.82,0000 0000 0000 0000 000000
2013-11-23 00:02:22,0.08,2.15,0.00,24.71,27.93,30.74,5.88,31.29,1003.68,2040.85,2720.19,2728.82,2965.88,349.65,317.70,10.83,0000 0000 0000 0000 000000
2013-11-23 00:03:22,0.12,2.15,0.00,24.72,27.93,30.70,5.87,31.21,1003.63,2040.84,2720.06,2728.40,2965.45,350.20,318.16,10.83,0000 0000 0000 0000 000000
2013-11-23 00:04:23,0.19,2.15,0.00,24.82,27.93,30.73,5.73,31.46,1003.59,2040.86,2719.92,2728.15,2965.19,348.29,316.31,10.84,0000 0000 0000 0000 000000
2013-11-23 00:05:23,0.13,2.15,0.00,24.82,27.93,30.68,5.84,31.46,1003.52,2040.81,2719.50,2728.05,2965.07,349.07,317.38,10.85,0000 0000 0000 0000 000000
2013-11-23 00:06:23,0.02,2.15,0.00,24.68,27.93,30.66,5.71,30.92,1003.53,2040.78,2719.19,2728.02,2965.02,349.52,317.56,10.85,0000 0000 0000 0000 000000
2013-11-23 00:07:23,0.09,2.15,0.00,24.65,27.93,30.66,5.97,31.33,1003.55,2040.82,2719.06,2727.93,2964.85,350.54,318.51,10.86,0000 0000 0000 0000 000000
2013-11-23 00:08:23,0.09,2.15,0.00,24.52,27.93,30.66,5.92,31.29,1003.54,2040.76,2718.90,2727.57,2964.40,350.27,318.40,10.86,0000 0000 0000 0000 000000
2013-11-23 00:09:24,0.19,2.16,0.00,24.55,27.93,30.64,5.97,31.42,1003.51,2040.68,2718.45,2727.23,2964.15,349.95,318.09,10.87,0000 0000 0000 0000 000000
2013-11-23 00:10:24,0.11,2.16,0.00,24.63,27.93,30.70,5.97,31.67,1003.45,2040.64,2718.16,2727.08,2964.05,349.82,317.90,10.88,0000 0000 0000 0000 000000
2013-11-23 00:11:24,0.06,2.16,0.00,24.55,27.93,30.69,5.95,31.38,1003.47,2040.56,2718.06,2727.03,2964.00,350.62,318.68,10.88,0000 0000 0000 0000 000000
2013-11-23 00:12:24,-0.04,2.16,0.00,24.54,27.93,30.70,5.83,30.83,1003.47,2040.63,2717.95,2727.00,2963.92,349.78,318.13,10.89,0000 0000 0000 0000 000000
2013-11-23 00:13:24,0.12,2.16,0.00,24.57,27.93,30.65,5.96,31.58,1003.50,2040.71,2717.55,2726.90,2963.60,350.48,317.63,10.89,0000 0000 0000 0000 000000
2013-11-23 00:14:24,0.28,2.16,0.00,24.59,27.93,30.68,5.95,31.33,1003.54,2040.86,2717.22,2726.59,2963.27,349.87,317.61,10.90,0000 0000 0000 0000 000000
2013-11-23 00:15:25,0.32,2.16,0.00,24.53,27.93,30.71,5.97,31.67,1003.51,2040.85,2717.08,2726.28,2963.09,349.83,318.00,10.90,0000 0000 0000 0000 000000
2013-11-23 00:16:25,0.10,2.16,0.00,24.52,27.93,30.74,5.84,31.25,1003.58,2040.75,2716.99,2726.11,2963.02,350.56,318.35,10.91,0000 0000 0000 0000 000000
2013-11-23 00:17:25,-0.03,2.16,0.00,24.51,27.93,30.71,5.83,31.08,1003.63,2040.70,2716.76,2726.04,2962.96,350.12,318.32,10.92,0000 0000 0000 0000 000000
2013-11-23 00:18:25,0.01,2.16,0.00,24.46,27.92,30.76,5.91,31.38,1003.65,2040.74,2716.34,2725.99,2962.65,349.27,317.44,10.92,0000 0000 0000 0000 000000
2013-11-23 00:19:26,0.23,2.16,0.00,24.46,27.93,30.77,5.92,31.54,1003.65,2040.77,2716.12,2725.74,2962.26,349.99,318.16,10.93,0000 0000 0000 0000 000000
2013-11-23 00:20:26,0.18,2.16,0.00,24.42,27.93,30.75,5.89,31.42,1003.69,2040.81,2716.01,2725.38,2962.09,350.09,318.39,10.93,0000 0000 0000 0000 000000
2013-11-23 00:21:26,0.19,2.17,0.00,24.43,27.92,30.74,5.83,30.88,1003.64,2040.80,2715.80,2725.15,2962.03,350.87,319.07,10.94,0000 0000 0000 0000 000000
2013-11-23 00:22:26,0.08,2.17,0.00,24.46,27.92,30.70,5.84,31.25,1003.65,2040.81,2715.36,2725.05,2961.98,349.72,318.01,10.95,0000 0000 0000 0000 000000
2013-11-23 00:23:27,0.15,2.17,0.00,24.56,27.92,30.74,5.94,31.50,1003.64,2040.70,2715.13,2725.01,2961.66,348.99,317.23,10.95,0000 0000 0000 0000 000000
2013-11-23 00:24:27,-0.03,2.17,0.00,24.68,27.93,30.69,5.95,31.21,1003.69,2040.65,2715.01,2724.93,2961.32,350.29,318.31,10.96,0000 0000 0000 0000 000000
2013-11-23 00:25:27,0.08,2.17,0.00,24.68,27.93,30.70,5.98,31.29,1003.64,2040.58,2714.72,2724.55,2961.12,350.17,318.18,10.96,0000 0000 0000 0000 000000
2013-11-23 00:26:28,0.13,2.17,0.00,24.62,27.93,30.75,5.83,31.04,1003.59,2040.49,2714.32,2724.25,2961.04,349.49,317.78,10.97,0000 0000 0000 0000 000000
2013-11-23 00:27:28,0.05,2.17,0.00,24.49,27.93,30.73,6.01,31.29,1003.62,2040.47,2714.11,2724.09,2960.95,350.96,319.31,10.97,0000 0000 0000 0000 000000
2013-11-23 00:28:28,0.11,2.17,0.00,24.41,27.93,30.73,6.05,31.13,1003.58,2040.32,2714.03,2724.03,2960.60,351.20,319.38,10.98,0000 0000 0000 0000 000000
2013-11-23 00:29:28,-0.06,2.17,0.00,24.46,27.93,30.72,5.95,31.08,1003.56,2040.38,2713.77,2723.97,2960.26,351.23,319.35,10.99,0000 0000 0000 0000 000000
2013-11-23 00:30:29,0.17,2.17,0.00,24.48,27.93,30.70,5.89,31.25,1003.54,2040.39,2713.39,2723.74,2960.10,349.56,317.81,10.99,0000 0000 0000 0000 000000
2013-11-23 00:31:29,0.19,2.17,0.00,24.40,27.93,30.67,5.77,31.08,1003.58,2040.31,2713.16,2723.40,2960.03,349.63,317.97,11.00,0000 0000 0000 0000 000000
2013-11-23 00:32:29,0.08,2.17,0.00,24.40,27.93,30.68,5.92,31.21,1003.56,2040.37,2713.05,2723.15,2960.01,349.89,318.20,11.00,0000 0000 0000 0000 000000
2013-11-23 00:33:29,0.13,2.17,0.00,24.48,27.93,30.66,5.88,31.17,1003.56,2040.42,2712.99,2723.05,2959.80,350.39,318.58,11.01,0000 0000 0000 0000 000000
2013-11-23 00:34:30,0.12,2.17,0.00,24.64,27.93,30.74,6.03,31.71,1003.52,2040.56,2712.83,2723.02,2959.55,350.34,318.35,11.02,0000 0000 0000 0000 000000
2013-11-23 00:35:30,0.26,2.17,0.00,24.65,27.93,30.75,5.91,31.08,1003.55,2040.64,2712.37,2722.99,2959.24,350.47,318.45,11.02,0000 0000 0000 0000 000000
2013-11-23 00:36:30,0.16,2.17,0.00,24.65,27.93,30.71,5.92,31.00,1003.62,2040.78,2712.14,2722.94,2959.09,350.46,318.47,11.03,0000 0000 0000 0000 000000
2013-11-23 00:37:30,0.21,2.18,0.00,24.63,27.93,30.73,5.63,31.17,1003.58,2040.80,2712.04,2722.56,2959.03,349.54,317.65,11.03,0000 0000 0000 0000 000000
2013-11-23 00:38:31,0.14,2.18,0.00,24.66,27.93,30.69,5.90,31.17,1003.63,2040.79,2711.92,2722.24,2958.97,349.98,318.17,11.04,0000 0000 0000 0000 000000
2013-11-23 00:39:31,0.11,2.18,0.00,24.63,27.93,30.70,5.81,31.04,1003.70,2040.73,2711.47,2722.09,2958.60,348.80,317.30,11.04,0000 0000 0000 0000 000000
2013-11-23 00:40:31,0.17,2.18,0.00,24.65,27.93,30.73,5.82,31.17,1003.77,2040.78,2711.17,2722.03,2958.23,349.45,317.59,11.05,0000 0000 0000 0000 000000
2013-11-23 00:41:31,0.12,2.18,0.00,24.69,27.94,30.70,5.99,31.33,1003.74,2040.76,2711.04,2721.97,2958.08,349.90,317.96,11.06,0000 0000 0000 0000 000000
2013-11-23 00:42:32,0.01,2.18,0.00,24.80,27.94,30.64,5.84,31.29,1003.77,2040.74,2710.86,2721.77,2958.02,349.75,317.72,11.06,0000 0000 0000 0000 000000
2013-11-23 00:43:32,0.09,2.18,0.00,24.86,27.93,30.65,5.81,31.75,1003.79,2040.55,2710.40,2721.33,2957.93,350.20,318.07,11.07,0000 0000 0000 0000 000000
2013-11-23 00:44:32,0.05,2.18,0.00,24.77,27.93,30.65,6.02,31.67,1003.76,2040.40,2710.14,2721.12,2957.54,350.02,317.98,11.07,0000 0000 0000 0000 000000
2013-11-23 00:45:32,0.04,2.18,0.00,24.64,27.93,30.70,5.74,31.50,1003.74,2040.37,2710.04,2721.04,2957.20,349.53,317.67,11.08,0000 0000 0000 0000 000000
2013-11-23 00:46:32,0.08,2.18,0.00,24.55,27.93,30.66,5.84,30.83,1003.71,2040.33,2709.79,2721.01,2957.07,349.57,317.79,11.09,0000 0000 0000 0000 000000
2013-11-23 00:47:33,0.03,2.18,0.00,24.46,27.93,30.69,5.73,31.04,1003.73,2040.37,2709.41,2720.91,2957.02,349.31,317.83,11.09,0000 0000 0000 0000 000000
2013-11-23 00:48:33,0.16,2.18,0.00,24.50,27.93,30.75,5.81,31.58,1003.73,2040.45,2709.16,2720.55,2956.91,349.19,317.52,11.10,0000 0000 0000 0000 000000
2013-11-23 00:49:33,0.23,2.18,0.00,24.60,27.93,30.71,5.87,31.00,1003.79,2040.49,2709.06,2720.21,2956.50,350.24,318.38,11.10,0000 0000 0000 0000 000000
2013-11-23 00:50:33,0.22,2.19,0.00,24.64,27.93,30.68,5.83,31.00,1003.82,2040.57,2708.94,2720.07,2956.20,349.57,317.74,11.11,0000 0000 0000 0000 000000
2013-11-23 00:51:33,0.16,2.19,0.00,24.76,27.94,30.64,5.82,30.92,1003.79,2040.67,2708.47,2720.02,2956.07,349.98,318.06,11.12,0000 0000 0000 0000 000000
2013-11-23 00:52:34,0.22,2.19,0.00,24.74,27.94,30.68,5.93,31.04,1003.73,2040.60,2708.19,2719.99,2956.01,350.90,318.51,11.12,0000 0000 0000 0000 000000
2013-11-23 00:53:34,0.01,2.19,0.00,24.75,27.94,30.76,5.84,31.25,1003.66,2040.59,2708.06,2719.69,2955.97,350.02,318.14,11.13,0000 0000 0000 0000 000000
2013-11-23 00:54:34,0.12,2.19,0.00,24.72,27.94,30.76,5.98,31.13,1003.69,2040.54,2707.78,2719.33,2955.69,350.56,318.47,11.13,0000 0000 0000 0000 000000
2013-11-23 00:55:34,0.13,2.19,0.00,24.66,27.94,30.69,5.80,30.96,1003.78,2040.51,2707.32,2719.12,2955.29,349.50,317.64,11.14,0000 0000 0000 0000 000000
2013-11-23 00:56:35,0.18,2.19,0.00,24.70,27.94,30.72,5.86,31.08,1003.85,2040.63,2707.11,2719.04,2955.11,349.60,317.82,11.14,0000 0000 0000 0000 000000
2013-11-23 00:57:35,0.17,2.19,0.00,24.78,27.94,30.71,5.84,31.33,1003.83,2040.66,2707.04,2718.99,2955.04,349.94,317.92,11.15,0000 0000 0000 0000 000000
2013-11-23 00:58:35,0.08,2.19,0.00,24.84,27.94,30.71,5.87,31.04,1003.88,2040.69,2706.80,2718.80,2955.00,350.10,317.31,11.16,0000 0000 0000 0000 000000
2013-11-23 00:59:35,0.18,2.19,0.00,24.82,27.94,30.70,5.92,31.04,1003.90,2040.76,2706.35,2718.41,2954.90,349.87,317.88,11.16,0000 0000 0000 0000 000000
2013-11-23 01:00:36,0.24,2.19,0.00,24.67,27.94,30.67,5.93,31.21,1003.88,2040.80,2706.13,2718.18,2954.50,350.25,318.59,11.17,0000 0000 0000 0000 000000
2013-11-23 01:01:36,0.20,2.20,0.00,24.67,27.94,30.69,5.78,31.46,1003.89,2040.83,2706.02,2718.07,2954.18,349.94,318.06,11.17,0000 0000 0000 0000 000000
2013-11-23 01:02:36,0.12,2.20,0.00,24.64,27.94,30.70,5.96,31.25,1003.89,2040.79,2705.77,2718.02,2954.06,350.13,318.26,11.18,0000 0000 0000 0000 000000
2013-11-23 01:03:36,0.02,2.20,0.00,24.64,27.94,30.71,5.76,31.00,1003.90,2040.69,2705.36,2717.92,2953.99,349.37,317.58,11.19,0000 0000 0000 0000 000000
2013-11-23 01:04:37,0.04,2.20,0.00,24.68,27.94,30.70,5.79,31.17,1003.91,2040.68,2705.13,2717.48,2953.76,349.38,317.54,11.19,0000 0000 0000 0000 000000
2013-11-23 01:05:37,0.22,2.20,0.00,24.72,27.94,30.72,5.84,31.04,1003.91,2040.72,2705.02,2717.19,2953.34,349.81,317.90,11.20,0000 0000 0000 0000 000000
2013-11-23 01:06:37,0.22,2.20,0.00,24.74,27.94,30.69,6.05,31.25,1003.88,2040.73,2704.74,2717.07,2953.13,350.69,318.66,11.20,0000 0000 0000 0000 000000
2013-11-23 01:07:37,0.10,2.20,0.00,24.71,27.94,30.69,5.83,31.46,1003.87,2040.71,2704.31,2717.02,2953.05,349.68,317.78,11.21,0000 0000 0000 0000 000000
2013-11-23 01:08:38,0.05,2.20,0.00,24.74,27.94,30.66,5.87,31.04,1003.88,2040.69,2704.11,2716.98,2953.00,350.13,318.15,11.21,0000 0000 0000 0000 000000
2013-11-23 01:09:38,0.06,2.20,0.00,24.75,27.94,30.74,5.96,31.25,1003.87,2040.68,2703.98,2716.70,2952.73,349.83,317.77,11.22,0000 0000 0000 0000 000000
2013-11-23 01:10:38,0.16,2.20,0.00,24.75,27.94,30.69,5.78,31.25,1003.85,2040.71,2703.67,2716.30,2952.33,348.91,317.02,11.23,0000 0000 0000 0000 000000
2013-11-23 01:11:38,0.28,2.20,0.00,24.68,27.95,30.71,5.78,31.17,1003.83,2040.72,2703.28,2716.11,2952.11,349.49,317.62,11.23,0000 0000 0000 0000 000000
2013-11-23 01:12:39,0.14,2.20,0.00,24.72,27.95,30.65,5.85,31.21,1003.78,2040.77,2703.09,2716.04,2952.04,350.07,317.61,11.24,0000 0000 0000 0000 000000
2013-11-23 01:13:39,0.10,2.20,0.00,24.75,27.95,30.69,5.94,31.25,1003.77,2040.75,2702.99,2716.01,2952.00,350.06,317.97,11.24,0000 0000 0000 0000 000000
2013-11-23 01:14:39,0.02,2.20,0.00,24.70,27.95,30.70,5.99,31.42,1003.70,2040.79,2702.72,2715.86,2951.79,350.58,318.73,11.25,0000 0000 0000 0000 000000
2013-11-23 01:15:39,0.17,2.21,0.00,24.75,27.95,30.70,5.92,31.17,1003.65,2040.83,2702.30,2715.48,2951.47,349.87,317.84,11.26,0000 0000 0000 0000 000000
2013-11-23 01:16:40,0.25,2.21,0.00,24.80,27.95,30.66,5.80,31.25,1003.59,2040.80,2702.11,2715.20,2951.19,349.64,317.57,11.26,0000 0000 0000 0000 000000
2013-11-23 01:17:40,0.13,2.21,0.00,24.90,27.95,30.69,5.85,31.13,1003.64,2040.85,2702.01,2715.08,2951.06,349.05,316.92,11.27,0000 0000 0000 0000 000000
2013-11-23 01:18:40,0.13,2.21,0.00,24.98,27.95,30.67,5.91,31.00,1003.68,2040.86,2701.78,2715.01,2951.00,351.04,318.60,11.27,0000 0000 0000 0000 000000
2013-11-23 01:19:40,0.05,2.21,0.00,24.97,27.95,30.67,5.94,31.25,1003.67,2040.86,2701.34,2714.92,2950.90,350.30,318.19,11.28,0000 0000 0000 0000 000000
2013-11-23 01:20:41,0.14,2.21,0.00,25.00,27.95,30.66,5.94,31.17,1003.64,2040.85,2701.12,2714.69,2950.52,350.10,317.96,11.28,0000 0000 0000 0000 000000
2013-11-23 01:21:41,0.15,2.21,0.00,25.00,27.95,30.65,5.87,31.21,1003.76,2040.84,2701.04,2714.33,2950.21,349.93,317.24,11.29,0000 0000 0000 0000 000000
2013-11-23 01:22:41,0.16,2.21,0.00,25.01,27.95,30.66,5.84,31.17,1003.82,2040.75,2700.73,2714.12,2950.08,349.19,316.99,11.30,0000 0000 0000 0000 000000
2013-11-23 01:23:41,0.07,2.21,0.00,25.03,27.95,30.65,5.93,31.17,1003.83,2040.62,2700.31,2714.03,2950.00,349.64,317.39,11.30,0000 0000 0000 0000 000000
2013-11-23 01:24:42,0.03,2.21,0.00,24.89,27.95,30.69,5.77,30.92,1003.83,2040.65,2700.12,2713.99,2949.89,349.57,317.47,11.31,0000 0000 0000 0000 000000
2013-11-23 01:25:42,0.10,2.21,0.00,24.77,27.95,30.64,5.73,31.13,1003.82,2040.70,2700.00,2713.87,2949.52,349.02,317.09,11.31,0000 0000 0000 0000 000000
2013-11-23 01:26:42,0.13,2.21,0.00,24.68,27.95,30.70,5.81,31.13,1003.86,2040.61,2699.70,2713.45,2949.20,350.28,318.36,11.32,0000 0000 0000 0000 000000
2013-11-23 01:27:43,0.13,2.21,0.00,24.73,27.95,30.66,5.88,31.21,1003.87,2040.50,2699.28,2713.16,2949.07,349.94,317.91,11.33,0000 0000 0000 0000 000000
2013-11-23 01:28:43,0.12,2.21,0.00,24.72,27.95,30.66,5.99,31.50,1003.89,2040.49,2699.09,2713.05,2948.98,350.09,318.15,11.33,0000 0000 0000 0000 000000
2013-11-23 01:29:43,0.05,2.22,0.00,24.68,27.95,30.69,5.85,31.33,1003.87,2040.43,2698.84,2712.97,2948.59,349.72,317.84,11.34,0000 0000 0000 0000 000000
2013-11-23 01:30:44,0.08,2.22,0.00,24.88,27.95,30.65,5.75,30.92,1003.90,2040.44,2698.36,2712.72,2948.24,349.59,317.16,11.34,0000 0000 0000 0000 000000
2013-11-23 01:31:44,0.21,2.22,0.00,24.99,27.95,30.62,5.71,31.00,1003.91,2040.50,2698.13,2712.35,2948.08,349.54,317.29,11.35,0000 0000 0000 0000 000000
2013-11-23 01:32:44,0.21,2.22,0.00,24.96,27.95,30.70,5.92,31.25,1003.91,2040.54,2698.03,2712.13,2948.03,350.08,317.84,11.36,0000 0000 0000 0000 000000
2013-11-23 01:33:45,0.10,2.22,0.00,24.92,27.95,30.68,5.92,31.29,1003.90,2040.59,2697.83,2712.05,2947.98,350.33,317.95,11.36,0000 0000 0000 0000 000000
2013-11-23 01:34:45,0.13,2.22,0.00,24.85,27.95,30.65,5.98,31.13,1003.92,2040.66,2697.44,2712.01,2947.70,350.05,318.01,11.37,0000 0000 0000 0000 000000
2013-11-23 01:35:45,0.19,2.22,0.00,24.90,27.95,30.68,5.86,31.21,1003.91,2040.63,2697.16,2711.96,2947.30,350.33,318.15,11.37,0000 0000 0000 0000 000000
2013-11-23 01:36:46,0.13,2.22,0.00,24.94,27.95,30.64,5.83,31.33,1003.92,2040.55,2697.03,2711.54,2947.11,350.03,318.38,11.38,0000 0000 0000 0000 000000
2013-11-23 01:37:46,0.09,2.22,0.00,24.89,27.95,30.69,5.83,31.00,1003.92,2040.44,2696.67,2711.21,2947.03,349.90,317.81,11.38,0000 0000 0000 0000 000000
2013-11-23 01:38:46,0.08,2.22,0.00,24.88,27.95,30.67,5.96,31.21,1003.92,2040.52,2696.31,2711.08,2946.91,350.50,318.36,11.39,0000 0000 0000 0000 000000
2013-11-23 01:39:47,0.19,2.22,0.00,24.82,27.95,30.74,5.78,31.25,1003.92,2040.46,2696.11,2711.03,2946.59,349.69,317.96,11.40,0000 0000 0000 0000 000000
2013-11-23 01:40:47,0.06,2.22,0.00,24.83,27.95,30.67,5.87,31.21,1003.92,2040.47,2696.02,2710.95,2946.23,349.41,317.42,11.40,0000 0000 0000 0000 000000
2013-11-23 01:41:47,0.09,2.22,0.00,24.79,27.95,30.68,5.94,31.25,1003.92,2040.46,2695.71,2710.59,2946.08,350.21,318.18,11.41,0000 0000 0000 0000 000000
2013-11-23 01:42:48,0.21,2.23,0.00,24.72,27.95,30.69,5.92,31.63,1003.92,2040.52,2695.30,2710.24,2946.02,349.77,317.86,11.41,0000 0000 0000 0000 000000
2013-11-23 01:43:48,0.19,2.23,0.00,24.73,27.95,30.73,5.77,31.38,1003.92,2040.46,2695.11,2710.09,2945.74,349.48,317.59,11.42,0000 0000 0000 0000 000000
2013-11-23 01:44:48,0.09,2.23,0.00,24.83,27.95,30.71,5.83,31.29,1003.92,2040.36,2695.00,2710.03,2945.30,349.98,317.94,11.43,0000 0000 0000 0000 000000
2013-11-23 01:45:49,0.01,2.23,0.00,24.88,27.95,30.69,5.87,31.33,1003.92,2040.26,2694.57,2709.91,2945.11,349.84,317.76,11.43,0000 0000 0000 0000 000000
2013-11-23 01:46:49,0.06,2.23,0.00,24.98,27.95,30.65,5.96,31.54,1003.92,2040.18,2694.21,2709.49,2945.04,350.67,318.25,11.44,0000 0000 0000 0000 000000
2013-11-23 01:47:49,0.13,2.23,0.00,24.97,27.95,30.75,5.77,31.00,1003.92,2040.16,2694.07,2709.18,2945.00,349.53,317.37,11.44,0000 0000 0000 0000 000000
2013-11-23 01:48:49,0.11,2.23,0.00,24.96,27.95,30.67,5.78,31.21,1003.92,2040.32,2693.99,2709.07,2944.91,349.82,317.65,11.45,0000 0000 0000 0000 000000
2013-11-23 01:49:50,0.19,2.23,0.00,24.97,27.95,30.69,5.96,31.08,1003.92,2040.33,2693.68,2709.02,2944.49,351.50,318.88,11.45,0000 0000 0000 0000 000000
2013-11-23 01:50:50,0.13,2.23,0.00,24.99,27.95,30.72,5.84,31.00,1003.92,2040.23,2693.27,2708.97,2944.19,350.11,318.23,11.46,0000 0000 0000 0000 000000
2013-11-23 01:51:50,0.05,2.23,0.00,24.92,27.95,30.69,5.78,31.08,1003.92,2040.20,2693.09,2708.79,2944.07,350.29,318.10,11.47,0000 0000 0000 0000 000000
2013-11-23 01:52:51,0.08,2.23,0.00,24.92,27.95,30.72,5.80,31.42,1003.92,2040.21,2692.98,2708.38,2944.02,349.96,317.77,11.47,0000 0000 0000 0000 000000
2013-11-23 01:53:51,0.16,2.23,0.00,24.82,27.95,30.68,5.84,31.08,1003.92,2040.22,2692.55,2708.15,2943.95,349.99,317.95,11.48,0000 0000 0000 0000 000000
2013-11-23 01:54:51,0.16,2.23,0.00,24.80,27.95,30.67,5.79,31.21,1003.92,2040.36,2692.21,2708.05,2943.72,349.23,317.29,11.48,0000 0000 0000 0000 000000
2013-11-23 01:55:52,0.25,2.24,0.00,24.92,27.95,30.60,5.80,31.38,1003.92,2040.49,2692.08,2708.02,2943.41,350.13,318.17,11.49,0000 0000 0000 0000 000000
2013-11-23 01:56:52,0.15,2.24,0.00,25.01,27.95,30.65,5.98,31.50,1003.92,2040.48,2692.00,2707.95,2943.15,350.59,318.30,11.50,0000 0000 0000 0000 000000
2013-11-23 01:57:52,0.10,2.24,0.00,24.99,27.95,30.66,5.92,31.08,1003.92,2040.48,2691.66,2707.64,2943.05,350.64,318.37,11.50,0000 0000 0000 0000 000000
2013-11-23 01:58:53,0.11,2.24,0.00,25.07,27.95,30.67,5.92,31.42,1003.92,2040.29,2691.28,2707.25,2942.98,350.55,318.14,11.51,0000 0000 0000 0000 000000
2013-11-23 01:59:53,0.04,2.24,0.00,25.14,27.95,30.66,5.78,31.21,1003.93,2040.26,2691.10,2707.09,2942.63,348.83,316.59,11.51,0000 0000 0000 0000 000000
2013-11-23 02:00:53,0.15,2.24,0.00,25.15,27.95,30.65,5.92,31.33,1003.93,2040.35,2691.02,2707.03,2942.25,350.30,317.88,11.52,0000 0000 0000 0000 000000
2013-11-23 02:01:53,0.14,2.24,0.00,25.17,27.95,30.63,5.85,31.21,1003.93,2040.28,2690.70,2706.99,2942.09,350.65,318.18,11.53,0000 0000 0000 0000 000000
2013-11-23 02:02:54,0.06,2.24,0.00,25.12,27.95,30.65,5.78,31.08,1003.92,2040.36,2690.30,2706.93,2942.03,349.07,316.82,11.53,0000 0000 0000 0000 000000
2013-11-23 02:03:54,0.20,2.24,0.00,25.10,27.95,30.70,5.82,31.17,1003.93,2040.50,2690.11,2706.57,2941.97,349.51,317.75,11.54,0000 0000 0000 0000 000000
2013-11-23 02:04:54,0.22,2.24,0.00,25.03,27.95,30.68,6.00,31.29,1003.94,2040.43,2689.99,2706.22,2941.61,349.97,317.84,11.54,0000 0000 0000 0000 000000
2013-11-23 02:05:54,0.17,2.24,0.00,24.91,27.95,30.65,5.78,31.17,1003.94,2040.44,2689.69,2706.08,2941.25,349.91,317.79,11.55,0000 0000 0000 0000 000000
2013-11-23 02:06:55,0.16,2.25,0.00,24.86,27.95,30.65,5.99,31.29,1003.92,2040.49,2689.28,2706.03,2941.09,350.50,318.34,11.55,0000 0000 0000 0000 000000
2013-11-23 02:07:55,0.10,2.25,0.00,24.85,27.95,30.67,5.93,31.33,1003.92,2040.44,2689.10,2705.95,2941.03,350.31,318.75,11.56,0000 0000 0000 0000 000000
2013-11-23 02:08:55,0.05,2.25,0.00,24.85,27.95,30.65,5.91,31.33,1003.92,2040.41,2688.98,2705.57,2940.98,349.79,317.88,11.57,0000 0000 0000 0000 000000
2013-11-23 02:09:55,0.14,2.25,0.00,24.88,27.95,30.69,6.01,31.13,1003.92,2040.51,2688.62,2705.21,2940.73,350.20,318.35,11.57,0000 0000 0000 0000 000000
2013-11-23 02:10:56,0.23,2.25,0.00,24.89,27.95,30.65,5.98,31.50,1003.92,2040.48,2688.24,2705.07,2940.32,350.48,317.44,11.58,0000 0000 0000 0000 000000
2013-11-23 02:11:56,0.19,2.25,0.00,24.94,27.95,30.64,6.02,31.04,1003.92,2040.49,2688.08,2705.02,2940.11,350.29,318.10,11.58,0000 0000 0000 0000 000000
2013-11-23 02:12:56,0.05,2.25,0.00,24.95,27.95,30.76,5.85,31.21,1003.92,2040.38,2687.85,2704.89,2940.03,350.18,318.00,11.59,0000 0000 0000 0000 000000
2013-11-23 02:13:57,0.04,2.25,0.00,24.93,27.95,30.75,5.85,31.25,1003.92,2040.34,2687.36,2704.53,2939.96,349.96,317.61,11.60,0000 0000 0000 0000 000000
2013-11-23 02:14:57,0.17,2.25,0.00,24.82,27.95,30.73,5.98,31.79,1003.92,2040.28,2687.13,2704.22,2939.57,349.06,317.11,11.60,0000 0000 0000 0000 000000
2013-11-23 02:15:57,0.12,2.25,0.00,24.78,27.95,30.68,5.90,31.04,1003.92,2040.27,2687.05,2704.08,2939.21,350.50,318.46,11.61,0000 0000 0000 0000 000000
2013-11-23 02:16:57,0.11,2.25,0.00,24.72,27.95,30.70,5.90,31.13,1003.92,2040.35,2686.95,2704.03,2939.08,350.48,318.16,11.61,0000 0000 0000 0000 000000
2013-11-23 02:17:58,0.14,2.25,0.00,24.78,27.95,30.69,5.87,31.42,1003.92,2040.44,2686.57,2704.00,2939.02,349.97,318.31,11.62,0000 0000 0000 0000 000000
2013-11-23 02:18:58,0.11,2.25,0.00,24.93,27.95,30.71,5.93,31.04,1003.92,2040.38,2686.22,2703.77,2938.88,350.46,317.89,11.62,0000 0000 0000 0000 000000
2013-11-23 02:19:58,0.15,2.25,0.00,24.96,27.95,30.65,5.90,31.13,1003.92,2040.39,2686.08,2703.40,2938.46,349.78,317.84,11.63,0000 0000 0000 0000 000000
2013-11-23 02:20:59,0.17,2.25,0.00,24.89,27.95,30.63,5.80,31.21,1003.92,2040.38,2685.97,2703.16,2938.18,350.11,318.08,11.64,0000 0000 0000 0000 000000
2013-11-23 02:21:59,0.10,2.26,0.00,24.84,27.95,30.63,5.87,30.96,1003.92,2040.36,2685.57,2703.06,2938.07,349.31,317.64,11.64,0000 0000 0000 0000 000000
2013-11-23 02:22:59,0.15,2.26,0.00,24.85,27.95,30.66,5.80,31.13,1003.92,2040.49,2685.22,2703.01,2938.01,349.16,317.18,11.65,0000 0000 0000 0000 000000
2013-11-23 02:23:59,0.14,2.26,0.00,24.84,27.95,30.66,5.74,31.13,1003.92,2040.38,2685.08,2702.90,2937.91,349.02,317.06,11.65,0000 0000 0000 0000 000000
2013-11-23 02:25:00,0.03,2.26,0.00,24.85,27.95,30.67,5.87,31.08,1003.92,2040.32,2684.93,2702.49,2937.56,350.27,318.18,11.66,0000 0000 0000 0000 000000
2013-11-23 02:26:00,0.13,2.26,0.00,24.83,27.95,30.68,5.73,31.00,1003.92,2040.33,2684.50,2702.22,2937.22,349.58,317.57,11.67,0000 0000 0000 0000 000000
2013-11-23 02:27:00,0.23,2.26,0.00,24.91,27.95,30.66,5.90,31.17,1003.92,2040.42,2684.18,2702.09,2937.08,350.15,317.99,11.67,0000 0000 0000 0000 000000
2013-11-23 02:28:01,0.18,2.26,0.00,25.00,27.95,30.68,6.02,31.21,1003.93,2040.38,2684.06,2702.02,2937.01,349.11,317.13,11.68,0000 0000 0000 0000 000000
2013-11-23 02:29:01,0.04,2.26,0.00,24.96,27.95,30.68,5.74,31.08,1003.94,2040.40,2683.92,2701.97,2936.94,349.73,317.57,11.68,0000 0000 0000 0000 000000
2013-11-23 02:30:01,0.11,2.26,0.00,24.86,27.95,30.66,5.85,31.00,1003.92,2040.35,2683.45,2701.65,2936.50,349.97,317.90,11.69,0000 0000 0000 0000 000000
2013-11-23 02:31:02,0.19,2.26,0.00,24.88,27.95,30.67,6.06,31.50,1003.92,2040.34,2683.16,2701.28,2936.18,351.05,318.85,11.70,0000 0000 0000 0000 000000
2013-11-23 02:32:02,0.18,2.26,0.00,24.94,27.95,30.67,5.89,31.17,1003.92,2040.36,2683.03,2701.10,2936.07,349.72,317.59,11.70,0000 0000 0000 0000 000000
2013-11-23 02:33:02,0.18,2.27,0.00,24.86,27.95,30.67,5.88,31.25,1003.93,2040.48,2682.73,2701.03,2936.01,349.44,317.42,11.71,0000 0000 0000 0000 000000
2013-11-23 02:34:03,0.14,2.27,0.00,24.79,27.95,30.68,5.90,31.17,1003.93,2040.51,2682.31,2700.98,2935.97,349.67,317.80,11.71,0000 0000 0000 0000 000000
2013-11-23 02:35:03,0.17,2.27,0.00,24.73,27.95,30.66,5.90,31.17,1003.94,2040.55,2682.11,2700.77,2935.62,349.99,318.04,11.72,0000 0000 0000 0000 000000
2013-11-23 02:36:03,0.15,2.27,0.00,24.71,27.95,30.68,5.92,31.21,1003.92,2040.48,2681.99,2700.32,2935.23,349.78,317.88,11.72,0000 0000 0000 0000 000000